Year,Month,Day,Hour,Minute,Value (Times are PST for windspeed in km/hr)
2013,03,18,00,00,9.40
2013,03,18,00,01,12.60
2013,03,18,00,02,13.10
2013,03,18,00,03,17.10
2013,03,18,00,04,12.90
2013,03,18,00,05,16.30
2013,03,18,00,06,16.80
2013,03,18,00,07,6.40
2013,03,18,00,08,8.90
2013,03,18,00,09,12.70
2013,03,18,00,10,11.10
2013,03,18,00,11,14.50
2013,03,18,00,12,12.60
2013,03,18,00,13,10.50
2013,03,18,00,14,15.80
2013,03,18,00,15,17.10
2013,03,18,00,16,12.80
2013,03,18,00,17,10.40
2013,03,18,00,18,12.40
2013,03,18,00,19,19.50
2013,03,18,00,20,19.60
2013,03,18,00,21,15.30
2013,03,18,00,22,15.80
2013,03,18,00,23,14.40
2013,03,18,00,24,10.90
2013,03,18,00,25,18.40
2013,03,18,00,26,14.60
2013,03,18,00,27,17.10
2013,03,18,00,28,9.60
2013,03,18,00,29,11.90
2013,03,18,00,30,15.50
2013,03,18,00,31,13.10
2013,03,18,00,32,15.90
2013,03,18,00,33,15.40
2013,03,18,00,34,16.30
2013,03,18,00,35,12.30
2013,03,18,00,36,22.90
2013,03,18,00,37,16.20
2013,03,18,00,38,11.30
2013,03,18,00,39,6.10
2013,03,18,00,40,7.90
2013,03,18,00,41,6.40
2013,03,18,00,42,12.20
2013,03,18,00,43,10.80
2013,03,18,00,44,8.40
2013,03,18,00,45,7.70
2013,03,18,00,46,1.90
2013,03,18,00,47,4.80
2013,03,18,00,48,6.40
2013,03,18,00,49,10.30
2013,03,18,00,50,10.90
2013,03,18,00,51,11.40
2013,03,18,00,52,8.00
2013,03,18,00,53,10.10
2013,03,18,00,54,6.80
2013,03,18,00,55,11.80
2013,03,18,00,56,11.40
2013,03,18,00,57,14.60
2013,03,18,00,58,10.80
2013,03,18,00,59,10.50
2013,03,18,01,00,12.10
2013,03,18,01,01,13.50
2013,03,18,01,02,11.50
2013,03,18,01,03,11.20
2013,03,18,01,04,14.20
2013,03,18,01,05,19.30
2013,03,18,01,06,10.80
2013,03,18,01,07,8.90
2013,03,18,01,08,8.90
2013,03,18,01,09,4.40
2013,03,18,01,10,7.50
2013,03,18,01,11,10.90
2013,03,18,01,12,12.50
2013,03,18,01,13,9.40
2013,03,18,01,14,9.70
2013,03,18,01,15,9.70
2013,03,18,01,16,13.80
2013,03,18,01,17,12.10
2013,03,18,01,18,9.10
2013,03,18,01,19,10.00
2013,03,18,01,20,10.80
2013,03,18,01,21,14.30
2013,03,18,01,22,12.00
2013,03,18,01,23,16.90
2013,03,18,01,24,10.30
2013,03,18,01,25,9.70
2013,03,18,01,26,11.30
2013,03,18,01,27,10.60
2013,03,18,01,28,6.80
2013,03,18,01,29,12.10
2013,03,18,01,30,9.90
2013,03,18,01,31,8.10
2013,03,18,01,32,11.40
2013,03,18,01,33,5.70
2013,03,18,01,34,12.40
2013,03,18,01,35,10.10
2013,03,18,01,36,10.20
2013,03,18,01,37,8.30
2013,03,18,01,38,7.60
2013,03,18,01,39,12.20
2013,03,18,01,40,11.20
2013,03,18,01,41,15.10
2013,03,18,01,42,10.10
2013,03,18,01,43,12.30
2013,03,18,01,44,9.10
2013,03,18,01,45,12.00
2013,03,18,01,46,9.20
2013,03,18,01,47,5.60
2013,03,18,01,48,5.80
2013,03,18,01,49,8.20
2013,03,18,01,50,12.60
2013,03,18,01,51,12.10
2013,03,18,01,52,9.70
2013,03,18,01,53,5.60
2013,03,18,01,54,3.50
2013,03,18,01,55,13.00
2013,03,18,01,56,8.80
2013,03,18,01,57,10.80
2013,03,18,01,58,9.30
2013,03,18,01,59,8.90
2013,03,18,02,00,6.10
2013,03,18,02,01,4.60
2013,03,18,02,02,7.70
2013,03,18,02,03,6.40
2013,03,18,02,04,7.70
2013,03,18,02,05,7.40
2013,03,18,02,06,1.90
2013,03,18,02,07,3.60
2013,03,18,02,08,6.00
2013,03,18,02,09,6.80
2013,03,18,02,10,7.20
2013,03,18,02,11,4.40
2013,03,18,02,12,4.70
2013,03,18,02,13,3.30
2013,03,18,02,14,4.30
2013,03,18,02,15,5.50
2013,03,18,02,16,4.80
2013,03,18,02,17,1.20
2013,03,18,02,18,3.50
2013,03,18,02,19,5.10
2013,03,18,02,20,5.60
2013,03,18,02,21,5.90
2013,03,18,02,22,5.60
2013,03,18,02,23,4.00
2013,03,18,02,24,6.10
2013,03,18,02,25,3.90
2013,03,18,02,26,5.80
2013,03,18,02,27,7.20
2013,03,18,02,28,6.30
2013,03,18,02,29,2.60
2013,03,18,02,30,3.90
2013,03,18,02,31,2.80
2013,03,18,02,32,4.10
2013,03,18,02,33,4.70
2013,03,18,02,34,2.10
2013,03,18,02,35,3.20
2013,03,18,02,36,1.20
2013,03,18,02,37,1.90
2013,03,18,02,38,2.80
2013,03,18,02,39,3.10
2013,03,18,02,40,0.50
2013,03,18,02,41,0.60
2013,03,18,02,42,3.30
2013,03,18,02,43,1.50
2013,03,18,02,44,1.20
2013,03,18,02,45,1.00
2013,03,18,02,46,0.00
2013,03,18,02,47,1.60
2013,03,18,02,48,4.60
2013,03,18,02,49,4.10
2013,03,18,02,50,5.80
2013,03,18,02,51,5.30
2013,03,18,02,52,2.20
2013,03,18,02,53,0.80
2013,03,18,02,54,0.00
2013,03,18,02,55,0.00
2013,03,18,02,56,0.00
2013,03,18,02,57,0.00
2013,03,18,02,58,0.00
2013,03,18,02,59,0.00
2013,03,18,03,00,0.10
2013,03,18,03,01,0.00
2013,03,18,03,02,0.00
2013,03,18,03,03,0.00
2013,03,18,03,04,0.00
2013,03,18,03,05,0.00
2013,03,18,03,06,0.00
2013,03,18,03,07,0.20
2013,03,18,03,08,0.00
2013,03,18,03,09,0.00
2013,03,18,03,10,0.00
2013,03,18,03,11,0.00
2013,03,18,03,12,0.00
2013,03,18,03,13,0.00
2013,03,18,03,14,0.00
2013,03,18,03,15,0.00
2013,03,18,03,16,0.00
2013,03,18,03,17,0.00
2013,03,18,03,18,0.00
2013,03,18,03,19,0.00
2013,03,18,03,20,0.00
2013,03,18,03,21,0.00
2013,03,18,03,22,0.10
2013,03,18,03,23,0.00
2013,03,18,03,24,0.00
2013,03,18,03,25,0.20
2013,03,18,03,26,0.10
2013,03,18,03,27,1.60
2013,03,18,03,28,0.60
2013,03,18,03,29,0.00
2013,03,18,03,30,0.90
2013,03,18,03,31,1.30
2013,03,18,03,32,0.50
2013,03,18,03,33,0.80
2013,03,18,03,34,0.70
2013,03,18,03,35,0.00
2013,03,18,03,36,0.40
2013,03,18,03,37,0.20
2013,03,18,03,38,0.70
2013,03,18,03,39,3.60
2013,03,18,03,40,3.20
2013,03,18,03,41,3.20
2013,03,18,03,42,1.30
2013,03,18,03,43,1.00
2013,03,18,03,44,4.70
2013,03,18,03,45,6.10
2013,03,18,03,46,3.20
2013,03,18,03,47,8.50
2013,03,18,03,48,5.90
2013,03,18,03,49,5.30
2013,03,18,03,50,8.30
2013,03,18,03,51,9.50
2013,03,18,03,52,4.70
2013,03,18,03,53,4.70
2013,03,18,03,54,3.80
2013,03,18,03,55,7.90
2013,03,18,03,56,6.70
2013,03,18,03,57,1.00
2013,03,18,03,58,1.90
2013,03,18,03,59,0.70
2013,03,18,04,00,1.60
2013,03,18,04,01,3.90
2013,03,18,04,02,9.20
2013,03,18,04,03,7.80
2013,03,18,04,04,15.20
2013,03,18,04,05,11.30
2013,03,18,04,06,20.20
2013,03,18,04,07,24.10
2013,03,18,04,08,15.70
2013,03,18,04,09,22.10
2013,03,18,04,10,19.40
2013,03,18,04,11,15.40
2013,03,18,04,12,12.80
2013,03,18,04,13,14.50
2013,03,18,04,14,15.90
2013,03,18,04,15,11.20
2013,03,18,04,16,15.00
2013,03,18,04,17,8.50
2013,03,18,04,18,15.40
2013,03,18,04,19,12.80
2013,03,18,04,20,12.40
2013,03,18,04,21,12.70
2013,03,18,04,22,16.30
2013,03,18,04,23,13.30
2013,03,18,04,24,17.90
2013,03,18,04,25,16.70
2013,03,18,04,26,16.70
2013,03,18,04,27,15.50
2013,03,18,04,28,19.10
2013,03,18,04,29,10.10
2013,03,18,04,30,11.20
2013,03,18,04,31,7.70
2013,03,18,04,32,13.90
2013,03,18,04,33,11.50
2013,03,18,04,34,10.80
2013,03,18,04,35,8.40
2013,03,18,04,36,12.60
2013,03,18,04,37,12.50
2013,03,18,04,38,11.40
2013,03,18,04,39,7.90
2013,03,18,04,40,9.00
2013,03,18,04,41,13.40
2013,03,18,04,42,15.90
2013,03,18,04,43,8.50
2013,03,18,04,44,11.40
2013,03,18,04,45,11.10
2013,03,18,04,46,5.60
2013,03,18,04,47,11.30
2013,03,18,04,48,15.40
2013,03,18,04,49,11.00
2013,03,18,04,50,6.70
2013,03,18,04,51,13.50
2013,03,18,04,52,10.50
2013,03,18,04,53,12.70
2013,03,18,04,54,11.40
2013,03,18,04,55,8.40
2013,03,18,04,56,9.20
2013,03,18,04,57,6.40
2013,03,18,04,58,7.30
2013,03,18,04,59,9.00
2013,03,18,05,00,4.70
2013,03,18,05,01,7.50
2013,03,18,05,02,8.50
2013,03,18,05,03,5.20
2013,03,18,05,04,7.60
2013,03,18,05,05,5.60
2013,03,18,05,06,3.30
2013,03,18,05,07,9.30
2013,03,18,05,08,8.00
2013,03,18,05,09,4.70
2013,03,18,05,10,5.40
2013,03,18,05,11,7.00
2013,03,18,05,12,6.60
2013,03,18,05,13,7.20
2013,03,18,05,14,12.00
2013,03,18,05,15,5.70
2013,03,18,05,16,5.80
2013,03,18,05,17,8.90
2013,03,18,05,18,11.10
2013,03,18,05,19,13.70
2013,03,18,05,20,10.10
2013,03,18,05,21,16.60
2013,03,18,05,22,11.50
2013,03,18,05,23,9.70
2013,03,18,05,24,14.10
2013,03,18,05,25,10.10
2013,03,18,05,26,9.00
2013,03,18,05,27,11.80
2013,03,18,05,28,14.90
2013,03,18,05,29,10.90
2013,03,18,05,30,7.40
2013,03,18,05,31,11.30
2013,03,18,05,32,12.50
2013,03,18,05,33,10.60
2013,03,18,05,34,10.30
2013,03,18,05,35,9.70
2013,03,18,05,36,11.20
2013,03,18,05,37,7.80
2013,03,18,05,38,10.20
2013,03,18,05,39,6.80
2013,03,18,05,40,9.70
2013,03,18,05,41,8.50
2013,03,18,05,42,6.80
2013,03,18,05,43,11.00
2013,03,18,05,44,9.20
2013,03,18,05,45,16.00
2013,03,18,05,46,10.20
2013,03,18,05,47,9.90
2013,03,18,05,48,12.40
2013,03,18,05,49,11.30
2013,03,18,05,50,10.30
2013,03,18,05,51,7.60
2013,03,18,05,52,10.90
2013,03,18,05,53,13.00
2013,03,18,05,54,15.30
2013,03,18,05,55,17.30
2013,03,18,05,56,18.90
2013,03,18,05,57,11.60
2013,03,18,05,58,12.70
2013,03,18,05,59,19.60
2013,03,18,06,00,12.60
2013,03,18,06,01,16.50
2013,03,18,06,02,19.90
2013,03,18,06,03,15.20
2013,03,18,06,04,12.60
2013,03,18,06,05,13.10
2013,03,18,06,06,14.90
2013,03,18,06,07,15.20
2013,03,18,06,08,15.30
2013,03,18,06,09,9.70
2013,03,18,06,10,9.40
2013,03,18,06,11,8.90
2013,03,18,06,12,12.20
2013,03,18,06,13,16.10
2013,03,18,06,14,12.10
2013,03,18,06,15,14.10
2013,03,18,06,16,21.90
2013,03,18,06,17,12.90
2013,03,18,06,18,14.70
2013,03,18,06,19,16.50
2013,03,18,06,20,13.80
2013,03,18,06,21,15.00
2013,03,18,06,22,16.40
2013,03,18,06,23,21.50
2013,03,18,06,24,14.40
2013,03,18,06,25,13.50
2013,03,18,06,26,21.20
2013,03,18,06,27,17.60
2013,03,18,06,28,15.20
2013,03,18,06,29,15.20
2013,03,18,06,30,18.70
2013,03,18,06,31,21.70
2013,03,18,06,32,17.90
2013,03,18,06,33,17.20
2013,03,18,06,34,11.60
2013,03,18,06,35,15.60
2013,03,18,06,36,13.90
2013,03,18,06,37,13.00
2013,03,18,06,38,21.20
2013,03,18,06,39,12.40
2013,03,18,06,40,9.50
2013,03,18,06,41,14.30
2013,03,18,06,42,16.80
2013,03,18,06,43,17.10
2013,03,18,06,44,21.60
2013,03,18,06,45,17.50
2013,03,18,06,46,21.80
2013,03,18,06,47,16.30
2013,03,18,06,48,22.30
2013,03,18,06,49,13.60
2013,03,18,06,50,18.60
2013,03,18,06,51,10.50
2013,03,18,06,52,13.40
2013,03,18,06,53,13.40
2013,03,18,06,54,23.60
2013,03,18,06,55,14.60
2013,03,18,06,56,17.50
2013,03,18,06,57,15.20
2013,03,18,06,58,14.80
2013,03,18,06,59,19.00
2013,03,18,07,00,16.70
2013,03,18,07,01,14.60
2013,03,18,07,02,19.90
2013,03,18,07,03,19.70
2013,03,18,07,04,19.40
2013,03,18,07,05,21.80
2013,03,18,07,06,17.90
2013,03,18,07,07,20.00
2013,03,18,07,08,15.40
2013,03,18,07,09,14.00
2013,03,18,07,10,23.40
2013,03,18,07,11,21.60
2013,03,18,07,12,15.10
2013,03,18,07,13,16.70
2013,03,18,07,14,16.70
2013,03,18,07,15,20.40
2013,03,18,07,16,18.10
2013,03,18,07,17,18.50
2013,03,18,07,18,15.90
2013,03,18,07,19,14.40
2013,03,18,07,20,20.90
2013,03,18,07,21,19.40
2013,03,18,07,22,15.60
2013,03,18,07,23,23.00
2013,03,18,07,24,14.30
2013,03,18,07,25,19.40
2013,03,18,07,26,16.20
2013,03,18,07,27,16.30
2013,03,18,07,28,9.90
2013,03,18,07,29,8.70
2013,03,18,07,30,6.80
2013,03,18,07,31,12.20
2013,03,18,07,32,9.40
2013,03,18,07,33,8.40
2013,03,18,07,34,10.80
2013,03,18,07,35,17.90
2013,03,18,07,36,16.20
2013,03,18,07,37,10.70
2013,03,18,07,38,10.40
2013,03,18,07,39,12.60
2013,03,18,07,40,11.30
2013,03,18,07,41,5.60
2013,03,18,07,42,15.30
2013,03,18,07,43,13.30
2013,03,18,07,44,15.40
2013,03,18,07,45,13.30
2013,03,18,07,46,16.10
2013,03,18,07,47,26.70
2013,03,18,07,48,20.70
2013,03,18,07,49,12.00
2013,03,18,07,50,11.60
2013,03,18,07,51,18.90
2013,03,18,07,52,19.60
2013,03,18,07,53,16.30
2013,03,18,07,54,11.50
2013,03,18,07,55,23.10
2013,03,18,07,56,16.10
2013,03,18,07,57,21.20
2013,03,18,07,58,13.30
2013,03,18,07,59,16.00
2013,03,18,08,00,17.00
2013,03,18,08,01,21.90
2013,03,18,08,02,17.80
2013,03,18,08,03,21.20
2013,03,18,08,04,20.10
2013,03,18,08,05,18.30
2013,03,18,08,06,9.80
2013,03,18,08,07,11.30
2013,03,18,08,08,20.10
2013,03,18,08,09,19.60
2013,03,18,08,10,16.20
2013,03,18,08,11,13.90
2013,03,18,08,12,14.20
2013,03,18,08,13,24.30
2013,03,18,08,14,20.70
2013,03,18,08,15,15.70
2013,03,18,08,16,13.30
2013,03,18,08,17,11.10
2013,03,18,08,18,14.10
2013,03,18,08,19,24.60
2013,03,18,08,20,14.00
2013,03,18,08,21,14.20
2013,03,18,08,22,15.90
2013,03,18,08,23,14.10
2013,03,18,08,24,18.50
2013,03,18,08,25,13.50
2013,03,18,08,26,10.00
2013,03,18,08,27,14.10
2013,03,18,08,28,9.70
2013,03,18,08,29,15.60
2013,03,18,08,30,8.90
2013,03,18,08,31,12.90
2013,03,18,08,32,14.90
2013,03,18,08,33,18.30
2013,03,18,08,34,13.30
2013,03,18,08,35,14.10
2013,03,18,08,36,14.60
2013,03,18,08,37,12.20
2013,03,18,08,38,13.80
2013,03,18,08,39,20.80
2013,03,18,08,40,15.80
2013,03,18,08,41,20.50
2013,03,18,08,42,11.70
2013,03,18,08,43,14.00
2013,03,18,08,44,17.00
2013,03,18,08,45,7.80
2013,03,18,08,46,15.90
2013,03,18,08,47,11.90
2013,03,18,08,48,13.90
2013,03,18,08,49,19.40
2013,03,18,08,50,20.00
2013,03,18,08,51,26.70
2013,03,18,08,52,20.80
2013,03,18,08,53,20.90
2013,03,18,08,54,14.30
2013,03,18,08,55,14.40
2013,03,18,08,56,24.80
2013,03,18,08,57,23.50
2013,03,18,08,58,18.30
2013,03,18,08,59,7.20
2013,03,18,09,00,13.40
2013,03,18,09,01,12.80
2013,03,18,09,02,11.70
2013,03,18,09,03,12.60
2013,03,18,09,04,14.20
2013,03,18,09,05,11.80
2013,03,18,09,06,13.90
2013,03,18,09,07,13.90
2013,03,18,09,08,14.20
2013,03,18,09,09,16.10
2013,03,18,09,10,8.40
2013,03,18,09,11,8.20
2013,03,18,09,12,9.00
2013,03,18,09,13,6.10
2013,03,18,09,14,9.00
2013,03,18,09,15,18.30
2013,03,18,09,16,19.20
2013,03,18,09,17,18.20
2013,03,18,09,18,19.80
2013,03,18,09,19,9.20
2013,03,18,09,20,21.50
2013,03,18,09,21,18.00
2013,03,18,09,22,13.30
2013,03,18,09,23,11.00
2013,03,18,09,24,7.30
2013,03,18,09,25,14.90
2013,03,18,09,26,11.30
2013,03,18,09,27,16.90
2013,03,18,09,28,17.90
2013,03,18,09,29,13.30
2013,03,18,09,30,10.10
2013,03,18,09,31,16.20
2013,03,18,09,32,13.30
2013,03,18,09,33,26.00
2013,03,18,09,34,16.10
2013,03,18,09,35,8.20
2013,03,18,09,36,10.40
2013,03,18,09,37,15.20
2013,03,18,09,38,17.10
2013,03,18,09,39,14.70
2013,03,18,09,40,13.90
2013,03,18,09,41,13.80
2013,03,18,09,42,17.70
2013,03,18,09,43,13.50
2013,03,18,09,44,22.20
2013,03,18,09,45,15.10
2013,03,18,09,46,14.60
2013,03,18,09,47,15.20
2013,03,18,09,48,17.50
2013,03,18,09,49,19.80
2013,03,18,09,50,26.70
2013,03,18,09,51,10.10
2013,03,18,09,52,17.40
2013,03,18,09,53,18.30
2013,03,18,09,54,13.40
2013,03,18,09,55,18.40
2013,03,18,09,56,12.20
2013,03,18,09,57,13.80
2013,03,18,09,58,18.50
2013,03,18,09,59,21.40
2013,03,18,10,00,21.40
2013,03,18,10,01,21.60
2013,03,18,10,02,25.10
2013,03,18,10,03,20.90
2013,03,18,10,04,17.30
2013,03,18,10,05,8.40
2013,03,18,10,06,15.00
2013,03,18,10,07,23.70
2013,03,18,10,08,18.60
2013,03,18,10,09,13.40
2013,03,18,10,10,16.40
2013,03,18,10,11,19.00
2013,03,18,10,12,16.90
2013,03,18,10,13,16.20
2013,03,18,10,14,13.60
2013,03,18,10,15,15.50
2013,03,18,10,16,16.40
2013,03,18,10,17,17.90
2013,03,18,10,18,16.20
2013,03,18,10,19,14.80
2013,03,18,10,20,17.50
2013,03,18,10,21,20.70
2013,03,18,10,22,18.30
2013,03,18,10,23,28.40
2013,03,18,10,24,25.00
2013,03,18,10,25,20.40
2013,03,18,10,26,20.50
2013,03,18,10,27,23.50
2013,03,18,10,28,22.00
2013,03,18,10,29,14.20
2013,03,18,10,30,18.90
2013,03,18,10,31,15.50
2013,03,18,10,32,14.00
2013,03,18,10,33,18.30
2013,03,18,10,34,16.20
2013,03,18,10,35,13.00
2013,03,18,10,36,22.30
2013,03,18,10,37,22.90
2013,03,18,10,38,18.70
2013,03,18,10,39,15.20
2013,03,18,10,40,19.10
2013,03,18,10,41,18.60
2013,03,18,10,42,19.60
2013,03,18,10,43,10.80
2013,03,18,10,44,13.40
2013,03,18,10,45,23.70
2013,03,18,10,46,26.10
2013,03,18,10,47,15.80
2013,03,18,10,48,15.00
2013,03,18,10,49,22.80
2013,03,18,10,50,12.00
2013,03,18,10,51,8.70
2013,03,18,10,52,18.50
2013,03,18,10,53,19.00
2013,03,18,10,54,15.70
2013,03,18,10,55,17.40
2013,03,18,10,56,22.30
2013,03,18,10,57,16.00
2013,03,18,10,58,29.60
2013,03,18,10,59,17.50
2013,03,18,11,00,24.90
2013,03,18,11,01,20.50
2013,03,18,11,02,28.20
2013,03,18,11,03,22.50
2013,03,18,11,04,19.40
2013,03,18,11,05,13.10
2013,03,18,11,06,18.70
2013,03,18,11,07,17.70
2013,03,18,11,08,21.60
2013,03,18,11,09,27.40
2013,03,18,11,10,18.80
2013,03,18,11,11,15.50
2013,03,18,11,12,22.60
2013,03,18,11,13,16.50
2013,03,18,11,14,19.50
2013,03,18,11,15,26.40
2013,03,18,11,16,18.50
2013,03,18,11,17,21.60
2013,03,18,11,18,15.80
2013,03,18,11,19,15.50
2013,03,18,11,20,12.30
2013,03,18,11,21,15.30
2013,03,18,11,22,18.80
2013,03,18,11,23,16.30
2013,03,18,11,24,19.20
2013,03,18,11,25,11.70
2013,03,18,11,26,14.10
2013,03,18,11,27,19.40
2013,03,18,11,28,23.00
2013,03,18,11,29,28.00
2013,03,18,11,30,19.00
2013,03,18,11,31,18.30
2013,03,18,11,32,15.40
2013,03,18,11,33,18.50
2013,03,18,11,34,16.60
2013,03,18,11,35,15.20
2013,03,18,11,36,14.60
2013,03,18,11,37,19.80
2013,03,18,11,38,17.50
2013,03,18,11,39,29.60
2013,03,18,11,40,25.60
2013,03,18,11,41,22.70
2013,03,18,11,42,15.50
2013,03,18,11,43,23.70
2013,03,18,11,44,25.80
2013,03,18,11,45,24.20
2013,03,18,11,46,11.80
2013,03,18,11,47,25.40
2013,03,18,11,48,19.80
2013,03,18,11,49,17.80
2013,03,18,11,50,25.40
2013,03,18,11,51,19.20
2013,03,18,11,52,19.00
2013,03,18,11,53,22.90
2013,03,18,11,54,18.60
2013,03,18,11,55,19.60
2013,03,18,11,56,18.70
2013,03,18,11,57,14.30
2013,03,18,11,58,15.00
2013,03,18,11,59,15.40
2013,03,18,12,00,14.20
2013,03,18,12,01,18.30
2013,03,18,12,02,13.00
2013,03,18,12,03,12.10
2013,03,18,12,04,12.00
2013,03,18,12,05,13.10
2013,03,18,12,06,16.50
2013,03,18,12,07,15.10
2013,03,18,12,08,19.40
2013,03,18,12,09,27.40
2013,03,18,12,10,22.60
2013,03,18,12,11,14.90
2013,03,18,12,12,23.30
2013,03,18,12,13,27.40
2013,03,18,12,14,17.90
2013,03,18,12,15,21.80
2013,03,18,12,16,12.70
2013,03,18,12,17,16.90
2013,03,18,12,18,17.50
2013,03,18,12,19,21.00
2013,03,18,12,20,14.60
2013,03,18,12,21,13.40
2013,03,18,12,22,12.50
2013,03,18,12,23,8.40
2013,03,18,12,24,16.00
2013,03,18,12,25,15.20
2013,03,18,12,26,15.30
2013,03,18,12,27,19.70
2013,03,18,12,28,17.30
2013,03,18,12,29,18.00
2013,03,18,12,30,18.70
2013,03,18,12,31,15.00
2013,03,18,12,32,16.40
2013,03,18,12,33,18.10
2013,03,18,12,34,13.00
2013,03,18,12,35,17.50
2013,03,18,12,36,17.80
2013,03,18,12,37,13.40
2013,03,18,12,38,13.90
2013,03,18,12,39,13.70
2013,03,18,12,40,16.60
2013,03,18,12,41,11.80
2013,03,18,12,42,10.50
2013,03,18,12,43,11.80
2013,03,18,12,44,15.90
2013,03,18,12,45,17.00
2013,03,18,12,46,12.70
2013,03,18,12,47,18.20
2013,03,18,12,48,14.70
2013,03,18,12,49,12.50
2013,03,18,12,50,11.00
2013,03,18,12,51,11.30
2013,03,18,12,52,16.10
2013,03,18,12,53,13.90
2013,03,18,12,54,15.00
2013,03,18,12,55,22.80
2013,03,18,12,56,21.50
2013,03,18,12,57,25.50
2013,03,18,12,58,23.00
2013,03,18,12,59,17.40
2013,03,18,13,00,17.50
2013,03,18,13,01,10.90
2013,03,18,13,02,13.10
2013,03,18,13,03,17.80
2013,03,18,13,04,15.60
2013,03,18,13,05,15.70
2013,03,18,13,06,10.30
2013,03,18,13,07,15.10
2013,03,18,13,08,20.30
2013,03,18,13,09,19.70
2013,03,18,13,10,23.20
2013,03,18,13,11,21.00
2013,03,18,13,12,14.80
2013,03,18,13,13,12.20
2013,03,18,13,14,13.60
2013,03,18,13,15,19.30
2013,03,18,13,16,19.40
2013,03,18,13,17,16.90
2013,03,18,13,18,19.50
2013,03,18,13,19,24.70
2013,03,18,13,20,26.40
2013,03,18,13,21,21.60
2013,03,18,13,22,17.60
2013,03,18,13,23,21.50
2013,03,18,13,24,19.00
2013,03,18,13,25,17.90
2013,03,18,13,26,12.70
2013,03,18,13,27,18.30
2013,03,18,13,28,17.80
2013,03,18,13,29,14.30
2013,03,18,13,30,12.50
2013,03,18,13,31,18.10
2013,03,18,13,32,17.40
2013,03,18,13,33,20.40
2013,03,18,13,34,15.10
2013,03,18,13,35,19.60
2013,03,18,13,36,19.90
2013,03,18,13,37,16.30
2013,03,18,13,38,17.40
2013,03,18,13,39,14.70
2013,03,18,13,40,16.90
2013,03,18,13,41,18.10
2013,03,18,13,42,16.30
2013,03,18,13,43,13.70
2013,03,18,13,44,23.60
2013,03,18,13,45,17.50
2013,03,18,13,46,23.70
2013,03,18,13,47,17.80
2013,03,18,13,48,21.00
2013,03,18,13,49,15.90
2013,03,18,13,50,20.00
2013,03,18,13,51,12.50
2013,03,18,13,52,23.60
2013,03,18,13,53,14.20
2013,03,18,13,54,15.60
2013,03,18,13,55,8.40
2013,03,18,13,56,12.60
2013,03,18,13,57,17.20
2013,03,18,13,58,15.00
2013,03,18,13,59,14.80
2013,03,18,14,00,18.30
2013,03,18,14,01,19.20
2013,03,18,14,02,17.90
2013,03,18,14,03,16.40
2013,03,18,14,04,13.30
2013,03,18,14,05,16.60
2013,03,18,14,06,14.60
2013,03,18,14,07,13.40
2013,03,18,14,08,11.40
2013,03,18,14,09,13.80
2013,03,18,14,10,10.20
2013,03,18,14,11,14.50
2013,03,18,14,12,14.90
2013,03,18,14,13,21.50
2013,03,18,14,14,15.80
2013,03,18,14,15,11.30
2013,03,18,14,16,10.80
2013,03,18,14,17,20.90
2013,03,18,14,18,22.60
2013,03,18,14,19,22.10
2013,03,18,14,20,16.80
2013,03,18,14,21,17.40
2013,03,18,14,22,14.20
2013,03,18,14,23,12.40
2013,03,18,14,24,14.20
2013,03,18,14,25,15.40
2013,03,18,14,26,13.00
2013,03,18,14,27,10.00
2013,03,18,14,28,14.60
2013,03,18,14,29,18.30
2013,03,18,14,30,14.60
2013,03,18,14,31,18.40
2013,03,18,14,32,21.60
2013,03,18,14,33,18.60
2013,03,18,14,34,19.80
2013,03,18,14,35,14.80
2013,03,18,14,36,15.50
2013,03,18,14,37,20.20
2013,03,18,14,38,17.10
2013,03,18,14,39,13.70
2013,03,18,14,40,19.80
2013,03,18,14,41,13.10
2013,03,18,14,42,16.80
2013,03,18,14,43,23.10
2013,03,18,14,44,20.50
2013,03,18,14,45,22.00
2013,03,18,14,46,14.90
2013,03,18,14,47,19.50
2013,03,18,14,48,15.30
2013,03,18,14,49,13.80
2013,03,18,14,50,17.50
2013,03,18,14,51,17.50
2013,03,18,14,52,11.00
2013,03,18,14,53,8.70
2013,03,18,14,54,14.90
2013,03,18,14,55,16.90
2013,03,18,14,56,13.00
2013,03,18,14,57,15.30
2013,03,18,14,58,12.90
2013,03,18,14,59,21.20
2013,03,18,15,00,12.70
2013,03,18,15,01,8.60
2013,03,18,15,02,15.60
2013,03,18,15,03,13.60
2013,03,18,15,04,12.90
2013,03,18,15,05,16.50
2013,03,18,15,06,19.40
2013,03,18,15,07,15.60
2013,03,18,15,08,18.70
2013,03,18,15,09,22.00
2013,03,18,15,10,24.50
2013,03,18,15,11,26.40
2013,03,18,15,12,15.80
2013,03,18,15,13,24.00
2013,03,18,15,14,17.20
2013,03,18,15,15,20.80
2013,03,18,15,16,15.30
2013,03,18,15,17,11.30
2013,03,18,15,18,24.10
2013,03,18,15,19,17.00
2013,03,18,15,20,30.00
2013,03,18,15,21,19.80
2013,03,18,15,22,22.40
2013,03,18,15,23,17.60
2013,03,18,15,24,7.80
2013,03,18,15,25,21.30
2013,03,18,15,26,12.60
2013,03,18,15,27,20.20
2013,03,18,15,28,19.60
2013,03,18,15,29,22.60
2013,03,18,15,30,17.90
2013,03,18,15,31,23.70
2013,03,18,15,32,32.70
2013,03,18,15,33,17.20
2013,03,18,15,34,13.50
2013,03,18,15,35,11.20
2013,03,18,15,36,16.40
2013,03,18,15,37,14.20
2013,03,18,15,38,9.40
2013,03,18,15,39,11.40
2013,03,18,15,40,15.50
2013,03,18,15,41,13.10
2013,03,18,15,42,22.10
2013,03,18,15,43,17.10
2013,03,18,15,44,15.20
2013,03,18,15,45,19.50
2013,03,18,15,46,16.60
2013,03,18,15,47,22.80
2013,03,18,15,48,11.40
2013,03,18,15,49,13.80
2013,03,18,15,50,12.10
2013,03,18,15,51,12.20
2013,03,18,15,52,9.40
2013,03,18,15,53,14.70
2013,03,18,15,54,26.20
2013,03,18,15,55,21.00
2013,03,18,15,56,17.00
2013,03,18,15,57,17.50
2013,03,18,15,58,17.20
2013,03,18,15,59,14.90
2013,03,18,16,00,16.10
2013,03,18,16,01,17.40
2013,03,18,16,02,24.90
2013,03,18,16,03,17.80
2013,03,18,16,04,13.20
2013,03,18,16,05,18.30
2013,03,18,16,06,17.60
2013,03,18,16,07,22.60
2013,03,18,16,08,18.40
2013,03,18,16,09,15.10
2013,03,18,16,10,18.90
2013,03,18,16,11,14.70
2013,03,18,16,12,21.30
2013,03,18,16,13,15.90
2013,03,18,16,14,15.60
2013,03,18,16,15,19.10
2013,03,18,16,16,17.20
2013,03,18,16,17,18.80
2013,03,18,16,18,22.60
2013,03,18,16,19,16.60
2013,03,18,16,20,18.70
2013,03,18,16,21,16.80
2013,03,18,16,22,22.00
2013,03,18,16,23,24.90
2013,03,18,16,24,10.40
2013,03,18,16,25,10.10
2013,03,18,16,26,16.30
2013,03,18,16,27,22.00
2013,03,18,16,28,16.70
2013,03,18,16,29,18.30
2013,03,18,16,30,16.70
2013,03,18,16,31,12.60
2013,03,18,16,32,12.70
2013,03,18,16,33,13.80
2013,03,18,16,34,18.20
2013,03,18,16,35,19.60
2013,03,18,16,36,16.70
2013,03,18,16,37,10.80
2013,03,18,16,38,12.10
2013,03,18,16,39,12.00
2013,03,18,16,40,13.80
2013,03,18,16,41,9.40
2013,03,18,16,42,16.80
2013,03,18,16,43,18.20
2013,03,18,16,44,12.20
2013,03,18,16,45,20.00
2013,03,18,16,46,21.70
2013,03,18,16,47,17.20
2013,03,18,16,48,17.10
2013,03,18,16,49,12.30
2013,03,18,16,50,17.80
2013,03,18,16,51,14.30
2013,03,18,16,52,8.00
2013,03,18,16,53,19.40
2013,03,18,16,54,20.60
2013,03,18,16,55,14.10
2013,03,18,16,56,17.80
2013,03,18,16,57,12.60
2013,03,18,16,58,11.30
2013,03,18,16,59,16.70
2013,03,18,17,00,16.00
2013,03,18,17,01,9.80
2013,03,18,17,02,14.40
2013,03,18,17,03,19.50
2013,03,18,17,04,21.80
2013,03,18,17,05,19.30
2013,03,18,17,06,16.20
2013,03,18,17,07,18.70
2013,03,18,17,08,18.00
2013,03,18,17,09,19.00
2013,03,18,17,10,19.70
2013,03,18,17,11,18.20
2013,03,18,17,12,13.00
2013,03,18,17,13,16.90
2013,03,18,17,14,9.70
2013,03,18,17,15,19.80
2013,03,18,17,16,12.60
2013,03,18,17,17,15.90
2013,03,18,17,18,11.80
2013,03,18,17,19,14.40
2013,03,18,17,20,17.00
2013,03,18,17,21,12.10
2013,03,18,17,22,21.70
2013,03,18,17,23,12.50
2013,03,18,17,24,9.30
2013,03,18,17,25,11.30
2013,03,18,17,26,23.30
2013,03,18,17,27,18.90
2013,03,18,17,28,14.30
2013,03,18,17,29,14.70